contact:dominique.lefevre@mio.osupytheas.fr, maurice.libes@osupytheas.fr, didier.mallarino@osupytheas.fr
Project:EMSO http://www.emso-fr.org/EMSO-France
Depth: 2436.0 m
Title:EMSO Ligure Ouest : Data MII capteur AQUADOPP
Date,Latitude,Longitude,X_East,Y_North,Z_Up,Amplitude_X,Amplitude_Y,Amplitude_Z,Batterie,SoundSpeed,Heading,Pitch,Roll,Pressure,TIS,Speed,Direction
, degrees North, degrees East, m.s-1, m.s-1,m.s-1, 1, 1, 1, Volt, m.s-1, degree, degree, degree, dbar, degree_C, m.s-1, degree
2019-07-29T00:00:41,42.805,6.029,0.037,0.025,-0.01,103.0,112.0,100.0,13.4,1505.3,328.3,-0.7,1.8,2470.034,13.32,0.044,56.0
2019-07-29T00:03:42,42.805,6.029,0.047,0.0,-0.011,103.0,111.0,98.0,13.4,1505.3,324.1,-0.7,1.9,2470.012,13.32,0.047,90.0
2019-07-29T00:06:43,42.805,6.029,0.048,0.0,-0.006,102.0,110.0,99.0,13.4,1505.3,325.4,-0.7,1.8,2470.028,13.32,0.048,90.0
2019-07-29T00:09:44,42.805,6.029,0.037,0.014,-0.038,101.0,111.0,100.0,13.4,1505.3,326.0,-0.7,1.8,2469.984,13.32,0.039,69.3
2019-07-29T00:12:45,42.805,6.029,0.019,-0.014,-0.02,105.0,112.0,98.0,13.4,1505.3,327.9,-0.8,1.8,2470.013,13.32,0.023,126.4
2019-07-29T00:15:46,42.805,6.029,0.062,-0.002,-0.017,101.0,110.0,99.0,13.4,1505.3,325.8,-0.7,1.8,2470.076,13.32,0.062,91.8
2019-07-29T00:18:47,42.805,6.029,0.032,0.013,-0.013,101.0,109.0,99.0,13.4,1505.3,324.0,-0.7,1.8,2470.033,13.32,0.034,67.9
2019-07-29T00:21:48,42.805,6.029,0.039,-0.002,-0.02,102.0,111.0,98.0,13.4,1505.3,326.1,-0.7,1.8,2470.023,13.32,0.039,92.9
2019-07-29T00:24:49,42.805,6.029,0.035,-0.027,0.004,103.0,109.0,100.0,13.4,1505.3,326.6,-0.8,1.8,2470.046,13.32,0.044,127.7
2019-07-29T00:27:50,42.805,6.029,0.035,0.014,0.013,101.0,110.0,99.0,13.4,1505.3,326.6,-0.7,1.8,2470.008,13.32,0.037,68.2
2019-07-29T00:30:51,42.805,6.029,0.054,0.002,-0.002,101.0,110.0,100.0,13.4,1505.3,325.9,-0.7,1.8,2470.002,13.32,0.054,87.9
2019-07-29T00:33:52,42.805,6.029,0.053,-0.025,-0.004,102.0,112.0,99.0,13.3,1505.3,324.7,-0.7,1.8,2470.033,13.32,0.058,115.3
2019-07-29T00:36:53,42.805,6.029,0.024,-0.009,-0.024,103.0,112.0,100.0,13.3,1505.3,326.9,-0.7,1.8,2470.024,13.32,0.025,110.6
2019-07-29T00:39:54,42.805,6.029,0.048,-0.025,-0.044,103.0,112.0,99.0,13.3,1505.3,327.3,-0.7,1.8,2470.052,13.32,0.054,117.5
2019-07-29T00:42:55,42.805,6.029,0.037,0.004,0.005,104.0,111.0,98.0,13.3,1505.3,328.1,-0.7,1.9,2470.008,13.32,0.037,83.8
2019-07-29T00:45:56,42.805,6.029,0.044,-0.017,-0.028,103.0,110.0,99.0,13.3,1505.3,327.7,-0.7,1.8,2470.039,13.32,0.047,111.1
2019-07-29T00:48:57,42.805,6.029,0.045,0.001,-0.002,102.0,110.0,100.0,13.4,1505.3,325.5,-0.7,1.8,2470.03,13.32,0.045,88.7
2019-07-29T00:51:58,42.805,6.029,0.025,0.019,-0.023,104.0,112.0,98.0,13.4,1505.3,323.6,-0.7,1.9,2470.028,13.32,0.031,52.8
2019-07-29T00:54:59,42.805,6.029,0.048,0.015,-0.008,102.0,110.0,100.0,13.4,1505.3,324.9,-0.7,1.8,2470.017,13.32,0.05,72.6
2019-07-29T00:58:00,42.805,6.029,0.035,0.006,-0.038,102.0,111.0,98.0,13.3,1505.3,323.5,-0.7,1.8,2470.026,13.32,0.035,80.3
2019-07-29T01:01:01,42.805,6.029,0.041,0.003,-0.012,102.0,110.0,99.0,13.4,1505.3,324.2,-0.7,1.9,2470.031,13.32,0.041,85.8
2019-07-29T01:04:02,42.805,6.029,0.052,0.001,-0.043,102.0,110.0,99.0,13.3,1505.3,326.5,-0.7,1.9,2470.052,13.32,0.052,88.9
2019-07-29T01:07:03,42.805,6.029,0.032,0.015,-0.032,103.0,111.0,99.0,13.4,1505.3,323.9,-0.7,1.8,2470.078,13.32,0.035,64.9
2019-07-29T01:10:04,42.805,6.029,0.038,0.001,-0.009,103.0,112.0,100.0,13.4,1505.3,324.3,-0.7,1.8,2470.058,13.32,0.038,88.5
2019-07-29T01:13:05,42.805,6.029,0.042,0.009,-0.021,103.0,110.0,100.0,13.3,1505.3,326.5,-0.7,1.8,2470.049,13.32,0.042,77.9
2019-07-29T01:16:06,42.805,6.029,0.026,0.005,-0.043,103.0,115.0,98.0,13.4,1505.3,323.8,-0.7,1.8,2470.072,13.32,0.026,79.1
2019-07-29T01:19:07,42.805,6.029,0.034,0.006,0.026,104.0,111.0,100.0,13.4,1505.3,327.8,-0.8,1.8,2470.009,13.32,0.034,80.0
2019-07-29T01:22:08,42.805,6.029,0.039,0.004,-0.011,104.0,112.0,98.0,13.3,1505.3,323.7,-0.7,1.8,2470.016,13.32,0.039,84.1
2019-07-29T01:25:09,42.805,6.029,0.045,-0.013,-0.012,103.0,110.0,100.0,13.4,1505.3,326.4,-0.7,1.8,2470.041,13.32,0.046,106.1
2019-07-29T01:28:10,42.805,6.029,0.051,-0.023,-0.018,102.0,112.0,99.0,13.3,1505.3,326.5,-0.8,1.8,2470.067,13.32,0.055,114.3
2019-07-29T01:31:11,42.805,6.029,0.036,0.009,-0.004,103.0,110.0,100.0,13.4,1505.3,326.4,-0.7,1.8,2470.017,13.32,0.037,76.0
2019-07-29T01:34:12,42.805,6.029,0.047,0.013,-0.007,104.0,111.0,99.0,13.4,1505.3,325.8,-0.7,1.9,2470.056,13.32,0.048,74.5
2019-07-29T01:37:13,42.805,6.029,0.038,-0.006,-0.054,102.0,111.0,98.0,13.4,1505.3,326.1,-0.7,1.8,2470.049,13.32,0.038,99.0
2019-07-29T01:40:14,42.805,6.029,0.027,-0.016,-0.045,103.0,112.0,98.0,13.4,1505.3,324.8,-0.7,1.8,2470.091,13.32,0.031,120.7
2019-07-29T01:43:15,42.805,6.029,0.021,-0.019,-0.028,103.0,110.0,100.0,13.4,1505.3,325.7,-0.7,1.8,2470.097,13.32,0.028,132.1
2019-07-29T01:46:16,42.805,6.029,0.037,-0.006,-0.015,101.0,113.0,99.0,13.4,1505.3,325.1,-0.7,1.9,2470.056,13.32,0.037,99.2
2019-07-29T01:49:17,42.805,6.029,0.045,-0.002,-0.027,102.0,111.0,101.0,13.3,1505.3,327.8,-0.7,1.9,2470.057,13.32,0.045,92.5
2019-07-29T01:52:18,42.805,6.029,0.035,-0.005,-0.013,103.0,109.0,99.0,13.4,1505.3,328.3,-0.7,1.8,2470.047,13.32,0.035,98.1
2019-07-29T01:55:19,42.805,6.029,0.033,0.0,-0.004,103.0,111.0,97.0,13.3,1505.3,328.5,-0.7,1.9,2470.074,13.32,0.033,90.0
2019-07-29T01:58:20,42.805,6.029,0.031,0.02,-0.013,104.0,110.0,99.0,13.4,1505.3,328.4,-0.7,1.8,2470.079,13.32,0.036,57.2
2019-07-29T02:01:21,42.805,6.029,0.024,-0.019,-0.026,103.0,110.0,99.0,13.3,1505.3,324.1,-0.7,1.9,2470.044,13.32,0.03,128.4
2019-07-29T02:04:22,42.805,6.029,0.052,0.013,-0.002,102.0,110.0,100.0,13.4,1505.3,324.8,-0.7,1.8,2470.114,13.32,0.053,76.0
2019-07-29T02:07:23,42.805,6.029,0.046,-0.007,-0.036,102.0,110.0,99.0,13.4,1505.3,327.2,-0.7,1.8,2470.072,13.32,0.046,98.7
2019-07-29T02:10:24,42.805,6.029,0.065,0.005,0.01,103.0,110.0,100.0,13.4,1505.3,325.2,-0.7,1.9,2470.054,13.32,0.065,85.6
2019-07-29T02:13:25,42.805,6.029,0.017,0.0,-0.01,104.0,110.0,98.0,13.3,1505.3,326.7,-0.7,1.8,2470.035,13.32,0.017,90.0
2019-07-29T02:16:26,42.805,6.029,0.036,-0.004,-0.047,103.0,111.0,97.0,13.4,1505.3,326.1,-0.7,1.9,2470.088,13.32,0.036,96.3
2019-07-29T02:19:27,42.805,6.029,0.049,0.0,-0.019,103.0,109.0,99.0,13.4,1505.3,324.5,-0.7,1.8,2470.057,13.32,0.049,90.0
2019-07-29T02:22:28,42.805,6.029,0.028,-0.014,-0.003,101.0,111.0,99.0,13.3,1505.3,326.8,-0.7,1.9,2470.15,13.32,0.031,116.6
2019-07-29T02:25:29,42.805,6.029,0.033,-0.018,-0.012,102.0,111.0,100.0,13.4,1505.3,323.8,-0.7,1.8,2470.124,13.32,0.037,118.6
2019-07-29T02:28:30,42.805,6.029,0.072,-0.033,-0.034,102.0,108.0,99.0,13.4,1505.3,327.0,-0.7,1.9,2470.048,13.32,0.079,114.6
2019-07-29T02:31:31,42.805,6.029,0.063,-0.012,-0.012,104.0,110.0,99.0,13.3,1505.3,325.5,-0.7,1.9,2470.056,13.32,0.064,100.8
2019-07-29T02:34:32,42.805,6.029,0.044,-0.01,0.014,102.0,109.0,99.0,13.4,1505.3,324.3,-0.7,1.8,2470.093,13.32,0.045,102.8
2019-07-29T02:37:33,42.805,6.029,0.043,-0.024,-0.031,103.0,109.0,99.0,13.4,1505.3,325.8,-0.7,1.9,2470.115,13.32,0.049,119.2
2019-07-29T02:40:34,42.805,6.029,0.031,-0.001,-0.044,101.0,110.0,100.0,13.3,1505.3,327.3,-0.8,1.8,2470.087,13.32,0.031,91.8
2019-07-29T02:43:35,42.805,6.029,0.059,0.006,-0.045,102.0,112.0,98.0,13.4,1505.3,324.2,-0.7,1.8,2470.071,13.32,0.059,84.2
2019-07-29T02:46:36,42.805,6.029,0.035,-0.016,0.006,103.0,109.0,99.0,13.3,1505.3,327.2,-0.7,1.8,2470.036,13.32,0.038,114.6
2019-07-29T02:49:37,42.805,6.029,0.066,-0.008,-0.011,102.0,111.0,98.0,13.4,1505.3,324.3,-0.7,1.8,2470.101,13.32,0.066,96.9
2019-07-29T02:52:38,42.805,6.029,0.036,-0.004,-0.006,103.0,112.0,100.0,13.3,1505.3,326.0,-0.7,1.9,2470.104,13.32,0.036,96.3
2019-07-29T02:55:39,42.805,6.029,0.016,-0.001,-0.009,104.0,109.0,99.0,13.4,1505.3,327.8,-0.7,1.9,2470.054,13.32,0.016,93.6
2019-07-29T02:58:40,42.805,6.029,0.048,0.011,-0.017,102.0,110.0,99.0,13.4,1505.3,326.1,-0.7,1.9,2470.135,13.32,0.049,77.1
2019-07-29T03:01:41,42.805,6.029,0.03,0.005,-0.051,102.0,110.0,98.0,13.4,1505.3,326.0,-0.7,1.8,2470.091,13.32,0.03,80.5
2019-07-29T03:04:42,42.805,6.029,0.045,0.005,-0.029,102.0,107.0,100.0,13.4,1505.3,328.1,-0.7,1.8,2470.067,13.32,0.045,83.7
2019-07-29T03:07:43,42.805,6.029,0.067,0.012,0.01,103.0,107.0,100.0,13.3,1505.3,325.1,-0.7,1.9,2470.031,13.32,0.068,79.8
2019-07-29T03:10:44,42.805,6.029,0.026,0.0,-0.012,104.0,112.0,100.0,13.3,1505.3,327.2,-0.7,1.8,2470.11,13.32,0.026,90.0
2019-07-29T03:13:45,42.805,6.029,0.047,-0.002,0.005,102.0,110.0,100.0,13.4,1505.3,327.6,-0.7,1.8,2470.106,13.32,0.047,92.4
2019-07-29T03:16:46,42.805,6.029,0.058,0.006,-0.015,103.0,111.0,99.0,13.4,1505.3,327.2,-0.8,1.8,2470.121,13.32,0.058,84.1
2019-07-29T03:19:47,42.805,6.029,0.02,0.006,-0.049,103.0,111.0,98.0,13.4,1505.3,328.1,-0.7,1.8,2470.103,13.32,0.02,73.3
2019-07-29T03:22:48,42.805,6.029,0.061,-0.003,-0.009,102.0,108.0,100.0,13.4,1505.3,327.9,-0.7,1.8,2470.088,13.32,0.061,92.8
2019-07-29T03:25:49,42.805,6.029,0.032,0.0,-0.048,102.0,107.0,99.0,13.3,1505.3,326.8,-0.7,1.9,2470.127,13.32,0.032,90.0
2019-07-29T03:28:50,42.805,6.029,0.032,0.005,0.004,103.0,111.0,99.0,13.3,1505.3,328.3,-0.7,1.8,2470.115,13.32,0.032,81.1
2019-07-29T03:31:51,42.805,6.029,0.035,-0.021,-0.017,102.0,107.0,99.0,13.4,1505.3,327.4,-0.7,1.8,2470.12,13.32,0.04,121.0
2019-07-29T03:34:52,42.805,6.029,0.038,-0.007,-0.008,103.0,110.0,98.0,13.3,1505.3,324.4,-0.7,1.8,2470.098,13.32,0.038,100.4
2019-07-29T03:37:53,42.805,6.029,0.047,-0.01,-0.036,102.0,108.0,100.0,13.3,1505.3,326.9,-0.7,1.8,2470.141,13.32,0.048,102.0
2019-07-29T03:40:54,42.805,6.029,0.036,-0.013,-0.029,103.0,108.0,100.0,13.4,1505.3,328.4,-0.7,1.8,2470.092,13.32,0.038,109.9
2019-07-29T03:43:55,42.805,6.029,0.038,-0.004,-0.023,103.0,109.0,98.0,13.4,1505.3,326.5,-0.7,1.8,2470.101,13.32,0.038,96.0
2019-07-29T03:46:56,42.805,6.029,0.046,-0.015,-0.023,103.0,109.0,99.0,13.3,1505.3,328.1,-0.7,1.8,2470.093,13.32,0.048,108.1
2019-07-29T03:49:57,42.805,6.029,0.041,-0.014,-0.017,102.0,109.0,98.0,13.3,1505.3,324.1,-0.7,1.8,2470.103,13.32,0.043,108.9
2019-07-29T03:52:58,42.805,6.029,0.049,-0.001,-0.006,103.0,108.0,99.0,13.4,1505.3,326.2,-0.7,1.8,2470.128,13.32,0.049,91.2
2019-07-29T03:55:59,42.805,6.029,0.035,-0.005,-0.016,102.0,107.0,99.0,13.4,1505.3,324.8,-0.7,1.8,2470.078,13.32,0.035,98.1
2019-07-29T03:59:00,42.805,6.029,0.054,-0.002,-0.029,103.0,109.0,100.0,13.4,1505.3,327.9,-0.7,1.9,2470.128,13.32,0.054,92.1
2019-07-29T04:02:01,42.805,6.029,0.038,-0.02,-0.04,102.0,110.0,99.0,13.4,1505.3,327.8,-0.7,1.8,2470.108,13.32,0.042,117.8
2019-07-29T04:05:02,42.805,6.029,0.061,-0.01,-0.007,104.0,107.0,98.0,13.3,1505.3,326.3,-0.7,1.8,2470.126,13.32,0.061,99.3
2019-07-29T04:08:03,42.805,6.029,0.034,-0.014,-0.033,102.0,107.0,99.0,13.3,1505.3,325.0,-0.8,1.8,2470.115,13.32,0.036,112.4
2019-07-29T04:11:04,42.805,6.029,0.025,-0.01,-0.042,103.0,110.0,100.0,13.3,1505.3,326.0,-0.7,1.8,2470.105,13.32,0.026,111.8
2019-07-29T04:14:05,42.805,6.029,0.036,0.0,-0.014,106.0,109.0,99.0,13.3,1505.3,327.8,-0.7,1.8,2470.061,13.32,0.036,90.0
2019-07-29T04:17:06,42.805,6.029,0.034,-0.006,-0.008,103.0,110.0,100.0,13.3,1505.3,326.9,-0.7,1.8,2470.145,13.32,0.034,100.0
2019-07-29T04:20:07,42.805,6.029,0.048,0.003,-0.019,103.0,110.0,100.0,13.3,1505.3,324.5,-0.7,1.8,2470.098,13.32,0.048,86.4
2019-07-29T04:23:08,42.805,6.029,0.046,-0.009,-0.016,103.0,107.0,100.0,13.4,1505.3,326.0,-0.7,1.8,2470.139,13.32,0.046,101.1
2019-07-29T04:26:09,42.805,6.029,0.034,0.001,-0.013,104.0,109.0,98.0,13.4,1505.3,327.1,-0.7,1.9,2470.104,13.32,0.034,88.3
2019-07-29T04:29:10,42.805,6.029,0.041,0.0,-0.014,103.0,109.0,100.0,13.4,1505.3,325.1,-0.7,1.8,2470.134,13.32,0.041,90.0
2019-07-29T04:32:11,42.805,6.029,0.04,-0.008,-0.017,103.0,110.0,99.0,13.4,1505.3,328.1,-0.7,1.9,2470.101,13.32,0.04,101.3
2019-07-29T04:35:12,42.805,6.029,0.036,-0.003,0.0,102.0,108.0,99.0,13.3,1505.3,323.6,-0.7,1.8,2470.116,13.32,0.036,94.8
2019-07-29T04:38:13,42.805,6.029,0.037,0.001,-0.047,101.0,107.0,99.0,13.3,1505.3,326.0,-0.7,1.8,2470.145,13.32,0.037,88.5
2019-07-29T04:41:14,42.805,6.029,0.027,-0.017,-0.037,103.0,108.0,99.0,13.3,1505.3,328.2,-0.7,1.8,2470.132,13.32,0.031,122.2
2019-07-29T04:44:15,42.805,6.029,0.047,0.004,0.0,102.0,106.0,100.0,13.3,1505.3,323.1,-0.7,1.8,2470.149,13.32,0.047,85.1
2019-07-29T04:47:16,42.805,6.029,0.022,-0.005,-0.013,102.0,109.0,100.0,13.3,1505.3,324.5,-0.7,1.8,2470.137,13.32,0.022,102.8
2019-07-29T04:50:17,42.805,6.029,0.033,-0.006,0.002,103.0,106.0,100.0,13.3,1505.3,326.1,-0.7,1.8,2470.129,13.32,0.033,100.3
2019-07-29T04:53:18,42.805,6.029,0.059,0.001,-0.026,103.0,107.0,98.0,13.4,1505.3,325.9,-0.7,1.8,2470.14,13.32,0.059,89.0
2019-07-29T04:56:19,42.805,6.029,0.043,0.006,-0.007,103.0,106.0,99.0,13.4,1505.3,324.0,-0.7,1.8,2470.131,13.32,0.043,82.1
2019-07-29T04:59:20,42.805,6.029,0.04,-0.019,-0.014,103.0,105.0,99.0,13.4,1505.3,328.3,-0.8,1.8,2470.114,13.32,0.044,115.4
2019-07-29T05:02:21,42.805,6.029,0.037,-0.017,0.038,103.0,105.0,100.0,13.4,1505.3,327.3,-0.7,1.8,2470.086,13.32,0.04,114.7
2019-07-29T05:05:22,42.805,6.029,0.057,-0.031,0.004,102.0,105.0,99.0,13.3,1505.3,327.0,-0.7,1.8,2470.091,13.32,0.064,118.5
2019-07-29T05:08:23,42.805,6.029,0.038,-0.012,-0.032,104.0,110.0,99.0,13.4,1505.3,324.3,-0.7,1.8,2470.094,13.32,0.039,107.5
2019-07-29T05:11:24,42.805,6.029,0.05,-0.023,-0.027,102.0,108.0,99.0,13.4,1505.3,327.4,-0.7,1.8,2470.114,13.32,0.055,114.7
2019-07-29T05:14:25,42.805,6.029,0.035,-0.018,-0.034,103.0,107.0,99.0,13.4,1505.3,326.6,-0.7,1.8,2470.132,13.32,0.039,117.2
2019-07-29T05:17:26,42.805,6.029,0.04,-0.017,0.005,102.0,106.0,100.0,13.4,1505.3,324.8,-0.7,1.8,2470.12,13.32,0.043,113.0
2019-07-29T05:20:27,42.805,6.029,0.03,0.004,-0.014,103.0,106.0,99.0,13.4,1505.3,327.5,-0.7,1.8,2470.138,13.32,0.03,82.4
2019-07-29T05:23:28,42.805,6.029,0.045,-0.008,-0.003,103.0,108.0,100.0,13.4,1505.3,323.7,-0.7,1.9,2470.096,13.32,0.045,100.1
2019-07-29T05:26:29,42.805,6.029,0.038,-0.011,-0.035,103.0,104.0,99.0,13.4,1505.3,325.0,-0.7,1.8,2470.161,13.32,0.039,106.1
2019-07-29T05:29:30,42.805,6.029,0.037,-0.014,0.004,103.0,106.0,100.0,13.3,1505.3,326.9,-0.7,1.8,2470.071,13.32,0.039,110.7
2019-07-29T05:32:31,42.805,6.029,0.018,0.007,-0.014,104.0,105.0,99.0,13.4,1505.3,326.3,-0.7,1.9,2470.093,13.32,0.019,68.8
2019-07-29T05:35:32,42.805,6.029,0.059,-0.002,0.001,104.0,105.0,100.0,13.4,1505.3,325.7,-0.7,1.9,2470.062,13.32,0.059,91.9
2019-07-29T05:38:33,42.805,6.029,0.036,-0.007,-0.005,103.0,106.0,99.0,13.4,1505.3,324.6,-0.7,1.8,2470.123,13.32,0.036,101.0
2019-07-29T05:41:34,42.805,6.029,0.052,-0.01,0.001,102.0,104.0,98.0,13.4,1505.3,326.3,-0.7,1.8,2470.13,13.32,0.052,100.9
2019-07-29T05:44:35,42.805,6.029,0.046,-0.019,0.011,102.0,106.0,99.0,13.4,1505.3,325.9,-0.7,1.8,2470.101,13.32,0.049,112.4
2019-07-29T05:47:36,42.805,6.029,0.039,0.007,-0.005,103.0,105.0,97.0,13.4,1505.3,322.7,-0.7,1.8,2470.122,13.32,0.039,79.8
2019-07-29T05:50:37,42.805,6.029,0.05,-0.002,-0.017,103.0,105.0,98.0,13.4,1505.3,326.3,-0.7,1.8,2470.1,13.32,0.05,92.3
2019-07-29T05:53:38,42.805,6.029,0.05,-0.039,-0.023,103.0,105.0,99.0,13.4,1505.3,325.5,-0.7,1.8,2470.107,13.32,0.063,128.0
2019-07-29T05:56:39,42.805,6.029,0.05,-0.01,-0.028,103.0,107.0,100.0,13.4,1505.3,326.2,-0.7,1.8,2470.113,13.32,0.05,101.3
2019-07-29T05:59:40,42.805,6.029,0.052,-0.018,0.004,104.0,106.0,99.0,13.4,1505.3,325.0,-0.7,1.8,2470.069,13.32,0.055,109.1
2019-07-29T06:02:41,42.805,6.029,0.043,-0.009,0.023,103.0,106.0,98.0,13.3,1505.3,327.2,-0.7,1.8,2470.119,13.32,0.043,101.8
2019-07-29T06:05:42,42.805,6.029,0.045,-0.021,-0.01,103.0,105.0,99.0,13.4,1505.3,328.3,-0.7,1.9,2470.118,13.32,0.049,115.0
2019-07-29T06:08:43,42.805,6.029,0.045,-0.011,-0.037,102.0,105.0,99.0,13.3,1505.3,325.0,-0.7,1.8,2470.111,13.32,0.046,103.7
2019-07-29T06:11:44,42.805,6.029,0.039,-0.008,-0.019,103.0,106.0,98.0,13.4,1505.3,324.8,-0.7,1.8,2470.114,13.32,0.039,101.6
2019-07-29T06:14:45,42.805,6.029,0.035,0.001,-0.027,103.0,105.0,99.0,13.3,1505.3,323.9,-0.7,1.8,2470.069,13.32,0.035,88.4
2019-07-29T06:17:46,42.805,6.029,0.032,-0.018,-0.022,102.0,105.0,98.0,13.4,1505.3,323.8,-0.7,1.9,2470.086,13.32,0.036,119.4
2019-07-29T22:04:03,42.805,6.029,0.049,-0.015,-0.029,101.0,107.0,97.0,13.4,1505.1,324.4,-0.8,1.8,2470.672,13.27,0.051,107.0
2019-07-29T22:07:04,42.805,6.029,0.043,-0.003,0.002,101.0,105.0,97.0,13.4,1505.2,323.8,-0.7,1.9,2470.54,13.29,0.043,94.0
2019-07-29T22:10:05,42.805,6.029,0.022,-0.004,-0.051,102.0,105.0,97.0,13.3,1505.2,325.0,-0.7,1.9,2470.456,13.3,0.022,100.3
2019-07-29T22:13:06,42.805,6.029,0.053,-0.001,0.002,100.0,104.0,97.0,13.4,1505.3,326.7,-0.8,1.8,2470.384,13.31,0.053,91.1
2019-07-29T22:16:07,42.805,6.029,0.069,-0.015,0.009,101.0,102.0,97.0,13.4,1505.3,323.8,-0.7,1.8,2470.31,13.31,0.07,102.3
2019-07-29T22:19:08,42.805,6.029,0.051,-0.006,-0.017,101.0,103.0,96.0,13.4,1505.3,326.1,-0.7,1.9,2470.233,13.31,0.051,96.7
2019-07-29T22:22:09,42.805,6.029,0.047,-0.013,-0.022,99.0,103.0,98.0,13.4,1505.3,325.5,-0.7,1.8,2470.203,13.32,0.048,105.5
2019-07-29T22:25:10,42.805,6.029,0.041,-0.002,-0.007,100.0,104.0,98.0,13.3,1505.3,326.9,-0.8,1.8,2470.181,13.32,0.041,92.8
2019-07-29T22:28:11,42.805,6.029,0.033,0.005,-0.011,101.0,104.0,98.0,13.4,1505.3,326.0,-0.8,1.8,2470.141,13.32,0.033,81.4
2019-07-29T22:31:12,42.805,6.029,0.033,-0.004,-0.045,101.0,105.0,97.0,13.3,1505.3,326.2,-0.7,1.8,2470.114,13.32,0.033,96.9
2019-07-29T22:34:13,42.805,6.029,0.059,-0.001,0.006,102.0,106.0,97.0,13.3,1505.3,327.4,-0.7,1.9,2470.056,13.32,0.059,91.0
2019-07-29T22:37:14,42.805,6.029,0.056,-0.017,-0.031,100.0,104.0,97.0,13.4,1505.3,327.0,-0.8,1.8,2470.042,13.32,0.058,106.9
2019-07-29T22:40:15,42.805,6.029,0.045,-0.021,-0.021,102.0,104.0,97.0,13.4,1505.3,325.9,-0.7,1.8,2469.994,13.32,0.049,115.0
2019-07-29T22:43:16,42.805,6.029,0.033,-0.014,0.004,101.0,103.0,98.0,13.4,1505.3,327.8,-0.7,1.8,2469.993,13.32,0.035,113.0
2019-07-29T22:46:17,42.805,6.029,0.043,0.003,-0.019,101.0,104.0,97.0,13.4,1505.3,328.1,-0.7,1.8,2470.006,13.32,0.043,86.0
2019-07-29T22:49:18,42.805,6.029,0.057,-0.018,-0.04,100.0,103.0,97.0,13.4,1505.3,327.8,-0.8,1.8,2469.975,13.32,0.059,107.5
2019-07-29T22:52:19,42.805,6.029,0.042,-0.054,-0.04,99.0,103.0,98.0,13.4,1505.3,326.5,-0.7,1.8,2469.984,13.32,0.068,142.1
2019-07-29T22:55:20,42.805,6.029,0.027,-0.003,-0.016,101.0,103.0,97.0,13.4,1505.3,325.2,-0.7,1.9,2470.013,13.32,0.027,96.3
2019-07-29T22:58:21,42.805,6.029,0.022,-0.028,-0.04,101.0,103.0,97.0,13.4,1505.3,324.5,-0.7,1.8,2469.963,13.32,0.035,141.8
2019-07-29T23:01:22,42.805,6.029,0.033,-0.003,-0.023,100.0,104.0,97.0,13.4,1505.3,325.2,-0.7,1.8,2469.926,13.32,0.033,95.2
2019-07-29T23:04:23,42.805,6.029,0.062,-0.029,-0.012,100.0,105.0,97.0,13.4,1505.3,323.4,-0.8,1.8,2469.951,13.32,0.068,115.1
2019-07-29T23:07:24,42.805,6.029,0.049,-0.016,-0.013,101.0,104.0,97.0,13.4,1505.3,326.9,-0.7,1.8,2469.981,13.32,0.051,108.1
2019-07-29T23:10:25,42.805,6.029,0.042,-0.011,-0.04,101.0,103.0,96.0,13.4,1505.3,324.8,-0.7,1.9,2469.988,13.32,0.043,104.7
2019-07-29T23:13:27,42.805,6.029,0.057,-0.007,-0.007,100.0,103.0,98.0,13.3,1505.3,328.1,-0.7,1.9,2469.959,13.32,0.057,97.0
2019-07-29T23:16:27,42.805,6.029,0.054,-0.016,-0.029,98.0,103.0,96.0,13.4,1505.3,324.4,-0.7,1.8,2469.945,13.32,0.056,106.5
2019-07-29T23:19:28,42.805,6.029,0.059,0.002,-0.028,100.0,102.0,97.0,13.4,1505.3,325.0,-0.7,1.8,2469.96,13.32,0.059,88.1
2019-07-29T23:22:29,42.805,6.029,0.048,-0.003,-0.04,100.0,101.0,97.0,13.3,1505.3,325.0,-0.7,1.8,2469.942,13.32,0.048,93.6
2019-07-29T23:25:30,42.805,6.029,0.054,-0.01,-0.02,100.0,102.0,97.0,13.4,1505.3,325.5,-0.7,1.8,2469.959,13.32,0.054,100.5
2019-07-29T23:28:31,42.805,6.029,0.046,-0.004,-0.033,100.0,102.0,98.0,13.4,1505.3,327.6,-0.7,1.8,2469.902,13.32,0.046,95.0
2019-07-29T23:31:32,42.805,6.029,0.052,-0.018,-0.004,100.0,102.0,97.0,13.4,1505.3,323.8,-0.8,1.8,2469.925,13.32,0.055,109.1
2019-07-29T23:34:33,42.805,6.029,0.038,-0.019,-0.045,99.0,103.0,98.0,13.4,1505.3,327.7,-0.7,1.8,2469.913,13.32,0.042,116.6
2019-07-29T23:37:34,42.805,6.029,0.028,-0.016,-0.025,101.0,102.0,97.0,13.4,1505.3,328.4,-0.7,1.8,2469.912,13.32,0.032,119.7
2019-07-29T23:40:35,42.805,6.029,0.047,0.004,-0.023,99.0,102.0,98.0,13.4,1505.3,325.9,-0.7,1.8,2469.935,13.32,0.047,85.1
2019-07-29T23:43:36,42.805,6.029,0.042,0.001,-0.019,100.0,103.0,97.0,13.4,1505.3,326.0,-0.7,1.8,2469.911,13.32,0.042,88.6
2019-07-29T23:46:37,42.805,6.029,0.042,0.008,-0.064,101.0,102.0,97.0,13.3,1505.3,327.8,-0.7,1.8,2469.967,13.32,0.042,79.2
2019-07-29T23:49:38,42.805,6.029,0.053,-0.016,-0.054,99.0,103.0,98.0,13.4,1505.3,325.4,-0.7,1.8,2469.944,13.32,0.055,106.8
2019-07-29T23:52:39,42.805,6.029,0.045,-0.023,-0.017,100.0,103.0,97.0,13.4,1505.3,326.6,-0.7,1.8,2469.968,13.32,0.05,117.1
2019-07-29T23:55:40,42.805,6.029,0.057,-0.031,-0.04,101.0,103.0,97.0,13.4,1505.3,325.1,-0.7,1.8,2469.933,13.32,0.064,118.5
2019-07-29T23:58:41,42.805,6.029,0.052,-0.004,-0.001,101.0,103.0,97.0,13.4,1505.3,324.9,-0.7,1.8,2469.925,13.32,0.052,94.4
